Location: Focicchia
(42.2496°N, 9.2935°E)
Time: 20:57:13
(UTC+00:00)

X-37B - Pass Details

Date: 04 August 2021
Orbit: 381 x 393 km, 45.0° (Epoch: 29 August)

Event Time Altitude Azimuth Distance (km) Brightness Sun altitude
Exits shadow 02:16:23 52° 131° (SE) 480 0.9 -19.1°
Drops below altitude 10° 02:19:11 10° 77° (ENE) 1,397 4.2 -18.8°
Sets 02:21:17 0° 73° (ENE) 2,252 5.5 -18.5°
